Latest Weather Observations for Ocean Reef

IDW60901

Issued at 1:31 pm WST Wednesday 29 June 2016 (issued every 10 minutes, with the page automatically refreshed every 10 minutes)

About weather observations | Map of Perth area stations | Latest observations for Perth area | Other Formats
Station Details ID: 009214 Name: OCEAN REEF Lat: -31.76 Lon: 115.73 Height: 10.0 m
Data from the previous 72 hours. | See also: Recent months at Ocean Reef
Date/Time
WST
Temp
°C
App
Temp
°C
Dew
Point
°C
Rel
Hum
%
Delta-T
°C
Wind Press
QNH
hPa
Press
MSL
hPa
Rain since
9am
mm
Dir  Spd
km/h
Gust
km/h
Spd
kts
Gust
kts
29/01:30pm - - - - - SW 26 30 14 16 - - -
29/01:00pm - - - - - SSW 24 28 13 15 - - -
29/12:30pm - - - - - SW 19 24 10 13 - - -
29/12:00pm - - - - - SSW 19 24 10 13 - - -
29/11:30am - - - - - SSW 22 28 12 15 - - -
29/11:00am - - - - - SSW 22 28 12 15 - - -
29/10:30am - - - - - NW 6 9 3 5 - - -
29/10:00am - - - - - CALM 0 0 0 0 - - -
29/09:30am - - - - - SSE 7 9 4 5 - - -
29/09:25am - - - - - S 9 11 5 6 - - -
29/09:00am - - - - - SSW 39 46 21 25 - - -
29/08:30am - - - - - SW 30 39 16 21 - - -
29/08:00am - - - - - WSW 32 35 17 19 - - -
29/07:30am - - - - - WSW 28 35 15 19 - - -
29/07:00am - - - - - W 32 35 17 19 - - -
29/06:30am - - - - - WSW 30 33 16 18 - - -
29/06:00am - - - - - WSW 28 32 15 17 - - -
29/05:30am - - - - - WSW 28 32 15 17 - - -
29/05:00am - - - - - WSW 32 35 17 19 - - -
29/04:30am - - - - - SW 28 35 15 19 - - -
29/04:00am - - - - - WSW 30 33 16 18 - - -
29/03:30am - - - - - SW 19 26 10 14 - - -
29/03:00am - - - - - WSW 24 30 13 16 - - -
29/02:30am - - - - - WSW 26 32 14 17 - - -
29/02:00am - - - - - WSW 24 30 13 16 - - -
29/01:30am - - - - - WSW 22 26 12 14 - - -
29/01:00am - - - - - W 24 28 13 15 - - -
29/12:30am - - - - - WSW 22 28 12 15 - - -
29/12:00am - - - - - WSW 24 30 13 16 - - -
 
Date/Time
WST
Temp
°C
App
Temp
°C
Dew
Point
°C
Rel
Hum
%
Delta-T
°C
Wind Press
QNH
hPa
Press
MSL
hPa
Rain since
9am
mm
Dir  Spd
km/h
Gust
km/h
Spd
kts
Gust
kts
28/11:30pm - - - - - WSW 26 30 14 16 - - -
28/11:00pm - - - - - WSW 22 26 12 14 - - -
28/10:30pm - - - - - WSW 20 24 11 13 - - -
28/10:00pm - - - - - WSW 26 30 14 16 - - -
28/09:30pm - - - - - WSW 22 26 12 14 - - -
28/09:00pm - - - - - WSW 22 26 12 14 - - -
28/08:30pm - - - - - W 17 19 9 10 - - -
28/08:00pm - - - - - W 17 20 9 11 - - -
28/07:30pm - - - - - W 17 20 9 11 - - -
28/07:00pm - - - - - W 19 24 10 13 - - -
28/06:30pm - - - - - W 20 26 11 14 - - -
28/06:00pm - - - - - W 28 33 15 18 - - -
28/05:30pm - - - - - W 24 28 13 15 - - -
28/05:00pm - - - - - W 24 30 13 16 - - -
28/04:30pm - - - - - WNW 28 32 15 17 - - -
28/04:00pm - - - - - W 28 32 15 17 - - -
28/03:30pm - - - - - WSW 15 17 8 9 - - -
28/03:00pm - - - - - W 28 33 15 18 - - -
28/02:30pm - - - - - WNW 30 35 16 19 - - -
28/02:00pm - - - - - WNW 28 33 15 18 - - -
28/01:30pm - - - - - WNW 32 37 17 20 - - -
28/01:09pm - - - - - NNW 39 59 21 32 - - -
28/01:06pm - - - - - NNW 37 59 20 32 - - -
28/01:00pm - - - - - NNW 39 48 21 26 - - -
28/12:30pm - - - - - N 35 50 19 27 - - -
28/12:00pm - - - - - NNW 32 59 17 32 - - -
28/11:37am - - - - - N 32 50 17 27 - - -
28/11:30am - - - - - N 35 48 19 26 - - -
28/11:15am - - - - - NNW 39 50 21 27 - - -
28/11:00am - - - - - N 22 32 12 17 - - -
28/10:30am - - - - - N 19 35 10 19 - - -
28/10:00am - - - - - N 32 39 17 21 - - -
28/09:30am - - - - - N 24 35 13 19 - - -
28/09:00am - - - - - N 20 33 11 18 - - -
28/08:30am - - - - - NNE 19 30 10 16 - - -
28/08:00am - - - - - NNE 20 30 11 16 - - -
28/07:30am - - - - - NNE 20 30 11 16 - - -
28/07:00am - - - - - N 17 26 9 14 - - -
28/06:30am - - - - - N 19 26 10 14 - - -
28/06:00am - - - - - NNE 26 33 14 18 - - -
28/05:30am - - - - - NNE 26 32 14 17 - - -
28/05:00am - - - - - NNE 24 33 13 18 - - -
28/04:30am - - - - - NNE 22 32 12 17 - - -
28/04:00am - - - - - NNE 26 33 14 18 - - -
28/03:30am - - - - - NE 28 35 15 19 - - -
28/03:00am - - - - - NE 22 28 12 15 - - -
28/02:30am - - - - - NE 24 32 13 17 - - -
28/02:00am - - - - - NE 22 30 12 16 - - -
28/01:30am - - - - - NE 22 30 12 16 - - -
28/01:00am - - - - - NE 20 28 11 15 - - -
28/12:30am - - - - - NE 20 28 11 15 - - -
28/12:00am - - - - - NNE 22 30 12 16 - - -
 
Date/Time
WST
Temp
°C
App
Temp
°C
Dew
Point
°C
Rel
Hum
%
Delta-T
°C
Wind Press
QNH
hPa
Press
MSL
hPa
Rain since
9am
mm
Dir  Spd
km/h
Gust
km/h
Spd
kts
Gust
kts
27/11:30pm - - - - - NE 20 28 11 15 - - -
27/11:00pm - - - - - NE 17 24 9 13 - - -
27/10:30pm - - - - - NE 17 22 9 12 - - -
27/10:00pm - - - - - NE 20 26 11 14 - - -
27/09:30pm - - - - - NNE 17 22 9 12 - - -
27/09:00pm - - - - - NE 17 20 9 11 - - -
27/08:30pm - - - - - NE 17 24 9 13 - - -
27/08:00pm - - - - - NE 15 20 8 11 - - -
27/07:30pm - - - - - NE 15 19 8 10 - - -
27/07:00pm - - - - - NE 15 17 8 9 - - -
27/06:30pm - - - - - NE 13 15 7 8 - - -
27/06:00pm - - - - - NE 13 15 7 8 - - -
27/05:30pm - - - - - NNE 11 11 6 6 - - -
27/05:00pm - - - - - NW 15 17 8 9 - - -
27/04:30pm - - - - - WNW 17 19 9 10 - - -
27/04:00pm - - - - - NW 17 20 9 11 - - -
27/03:30pm - - - - - NW 17 24 9 13 - - -
27/03:00pm - - - - - N 19 33 10 18 - - -
27/02:30pm - - - - - N 24 33 13 18 - - -
27/02:00pm - - - - - NNW 30 39 16 21 - - -
27/01:30pm - - - - - N 24 33 13 18 - - -
27/01:00pm - - - - - N 24 37 13 20 - - -
27/12:30pm - - - - - N 28 43 15 23 - - -
27/12:00pm - - - - - N 20 35 11 19 - - -
27/11:30am - - - - - NNE 19 28 10 15 - - -
27/11:00am - - - - - N 22 30 12 16 - - -
27/10:30am - - - - - NNE 20 33 11 18 - - -
27/10:00am - - - - - NNE 19 30 10 16 - - -
27/09:30am - - - - - NNE 17 24 9 13 - - -
27/09:00am - - - - - NNE 20 32 11 17 - - -
27/08:30am - - - - - NNE 28 37 15 20 - - -
27/08:00am - - - - - NE 28 35 15 19 - - -
27/07:30am - - - - - NNE 26 33 14 18 - - -
27/07:00am - - - - - NE 24 32 13 17 - - -
27/06:30am - - - - - NE 24 33 13 18 - - -
27/06:00am - - - - - NE 24 32 13 17 - - -
27/05:30am - - - - - NE 24 32 13 17 - - -
27/05:00am - - - - - NE 26 37 14 20 - - -
27/04:30am - - - - - NE 26 33 14 18 - - -
27/04:00am - - - - - NE 24 33 13 18 - - -
27/03:30am - - - - - NE 24 33 13 18 - - -
27/03:00am - - - - - NE 22 30 12 16 - - -
27/02:30am - - - - - NE 22 30 12 16 - - -
27/02:00am - - - - - NE 20 28 11 15 - - -
27/01:30am - - - - - NE 20 30 11 16 - - -
27/01:00am - - - - - NE 20 28 11 15 - - -
27/12:30am - - - - - NE 19 26 10 14 - - -
27/12:00am - - - - - NE 20 28 11 15 - - -
 
Date/Time
WST
Temp
°C
App
Temp
°C
Dew
Point
°C
Rel
Hum
%
Delta-T
°C
Wind Press
QNH
hPa
Press
MSL
hPa
Rain since
9am
mm
Dir  Spd
km/h
Gust
km/h
Spd
kts
Gust
kts
26/11:30pm - - - - - NNE 20 28 11 15 - - -
26/11:00pm - - - - - NNE 20 28 11 15 - - -
26/10:30pm - - - - - NE 19 24 10 13 - - -
26/10:00pm - - - - - NNE 19 26 10 14 - - -
26/09:30pm - - - - - NNE 19 26 10 14 - - -
26/09:00pm - - - - - NNE 17 24 9 13 - - -
26/08:30pm - - - - - NNE 15 20 8 11 - - -
26/08:00pm - - - - - NNE 15 19 8 10 - - -
26/07:30pm - - - - - NNE 13 17 7 9 - - -
26/07:00pm - - - - - NNE 11 17 6 9 - - -
26/06:30pm - - - - - NNE 11 13 6 7 - - -
26/06:00pm - - - - - N 11 11 6 6 - - -
26/05:30pm - - - - - NNW 15 19 8 10 - - -
26/05:00pm - - - - - NNW 17 20 9 11 - - -
26/04:30pm - - - - - NNW 15 17 8 9 - - -
26/04:00pm - - - - - NNW 15 17 8 9 - - -
26/03:30pm - - - - - NNW 19 22 10 12 - - -
26/03:00pm - - - - - NNW 17 20 9 11 - - -
26/02:30pm - - - - - NNW 17 19 9 10 - - -
26/02:00pm - - - - - NNW 19 19 10 10 - - -

Latest Capital City Observations: Canberra | Sydney | Melbourne | Brisbane | Adelaide | Perth | Hobart | Darwin

Other Formats:

Comma delimited format used in spreadsheet applications
http://www.bom.gov.au/fwo/IDW60901/IDW60901.94607.axf

JavaScript Object Notation format (JSON) in row-major order
http://www.bom.gov.au/fwo/IDW60901/IDW60901.94607.json